TOM5TJ EGCC-LGSK

Flight info

Callsign TOM5TJ
Flight time N/A
Altitude 35000
Route DESIG L603 DOLAS DCT NAVPI DCT ALFEN DCT DOJOH DCT DODEN DCT NEGIX DCT DINKU DCT BESNI DCT LATLO DCT OBEDI DCT NAKUM DCT OLEZE DCT TEBLI DCT BOSNA DCT PODOB DCT MEDUX UM867 KOGAT DCT ERANA UL737 TSL UL617 IBIDI
Aircraft B752/M-SDE2E3FGHIJ3J4J7RWXY/LB1

Departure

Time 2026-05-06 14:53
Airport Manchester Airport (EGCC)

Arrival

Time N/A
Airport Skiathos Island National Airport (LGSK)
Time Latitude Longitude Altitude Speed Heading
2026-05-06 14:24 53.36869 -2.28845 219 ft 0 kts 134°
2026-05-06 14:37 53.36871 -2.28849 218 ft 2 kts 135°
2026-05-06 14:38 53.36882 -2.28865 218 ft 2 kts 138°
2026-05-06 14:38 53.36895 -2.28876 218 ft 2 kts 179°
2026-05-06 14:38 53.36909 -2.28870 218 ft 2 kts 217°
2026-05-06 14:38 53.36919 -2.28852 218 ft 2 kts 228°
2026-05-06 14:39 53.36930 -2.28834 218 ft 1 kts 224°
2026-05-06 14:39 53.36932 -2.28831 218 ft 0 kts 225°
2026-05-06 14:41 53.36929 -2.28835 218 ft 3 kts 225°
2026-05-06 14:42 53.36890 -2.28901 218 ft 14 kts 225°
2026-05-06 14:42 53.36805 -2.29012 218 ft 15 kts 207°
2026-05-06 14:42 53.36716 -2.28985 218 ft 13 kts 134°
2026-05-06 14:42 53.36647 -2.28892 218 ft 10 kts 154°
2026-05-06 14:43 53.36586 -2.28771 218 ft 16 kts 112°
2026-05-06 14:43 53.36525 -2.28615 218 ft 15 kts 136°
2026-05-06 14:43 53.36453 -2.28496 218 ft 14 kts 136°
2026-05-06 14:43 53.36397 -2.28404 218 ft 4 kts 134°
2026-05-06 14:44 53.36373 -2.28363 218 ft 5 kts 134°
2026-05-06 14:44 53.36324 -2.28278 218 ft 15 kts 136°
2026-05-06 14:44 53.36234 -2.28127 218 ft 19 kts 135°
2026-05-06 14:45 53.36085 -2.28040 218 ft 10 kts 163°
2026-05-06 14:45 53.36029 -2.27958 218 ft 10 kts 135°
2026-05-06 14:45 53.35966 -2.27860 218 ft 12 kts 149°
2026-05-06 14:45 53.35885 -2.27845 218 ft 11 kts 186°
2026-05-06 14:46 53.35794 -2.27862 218 ft 14 kts 186°
2026-05-06 14:46 53.35693 -2.27881 218 ft 14 kts 186°
2026-05-06 14:46 53.35603 -2.27942 218 ft 13 kts 227°
2026-05-06 14:46 53.35543 -2.28061 218 ft 16 kts 224°
2026-05-06 14:47 53.35429 -2.28153 218 ft 18 kts 190°
2026-05-06 14:47 53.35310 -2.28202 218 ft 17 kts 204°
2026-05-06 14:47 53.35216 -2.28333 218 ft 17 kts 229°
2026-05-06 14:47 53.35144 -2.28484 218 ft 16 kts 231°
2026-05-06 14:48 53.35074 -2.28622 218 ft 12 kts 229°
2026-05-06 14:48 53.35021 -2.28726 218 ft 11 kts 229°
2026-05-06 14:48 53.34956 -2.28843 218 ft 15 kts 226°
2026-05-06 14:48 53.34883 -2.28969 218 ft 14 kts 226°
2026-05-06 14:49 53.34830 -2.29046 218 ft 4 kts 212°
2026-05-06 14:49 53.34820 -2.29054 218 ft 0 kts 203°
2026-05-06 14:50 53.34819 -2.29055 218 ft 0 kts 203°
2026-05-06 14:51 53.34797 -2.29067 218 ft 7 kts 197°
2026-05-06 14:51 53.34749 -2.29071 218 ft 9 kts 164°
2026-05-06 14:51 53.34681 -2.29002 218 ft 9 kts 131°
2026-05-06 14:52 53.34691 -2.28917 218 ft 9 kts 51°
2026-05-06 14:52 53.34862 -2.28564 219 ft 73 kts 51°
2026-05-06 14:52 53.35322 -2.27616 219 ft 139 kts 51°
2026-05-06 14:52 53.36017 -2.26178 462 ft 175 kts 52°
2026-05-06 14:53 53.36776 -2.24569 1241 ft 185 kts 55°
2026-05-06 14:53 53.37506 -2.22861 1904 ft 193 kts 54°
2026-05-06 14:53 53.38296 -2.21106 2400 ft 207 kts 53°
2026-05-06 14:53 53.39167 -2.19227 3139 ft 210 kts 52°
2026-05-06 14:54 53.40045 -2.17359 3882 ft 213 kts 52°
2026-05-06 14:54 53.40949 -2.15454 4614 ft 215 kts 51°
2026-05-06 14:54 53.41906 -2.13447 4944 ft 237 kts 51°
2026-05-06 14:54 53.42986 -2.11194 5376 ft 257 kts 51°
2026-05-06 14:55 53.44102 -2.08863 6088 ft 265 kts 51°
2026-05-06 14:55 53.45255 -2.06455 6901 ft 269 kts 50°
2026-05-06 14:55 53.46402 -2.04059 7673 ft 273 kts 50°
2026-05-06 14:55 53.47594 -2.01569 8436 ft 278 kts 50°
2026-05-06 14:56 53.48815 -1.99062 9179 ft 282 kts 48°
2026-05-06 14:56 53.50035 -1.96627 9882 ft 286 kts 48°
2026-05-06 14:56 53.51245 -1.94007 10426 ft 298 kts 58°
2026-05-06 14:56 53.52007 -1.90657 10674 ft 321 kts 78°
2026-05-06 14:57 53.52096 -1.86809 10947 ft 343 kts 96°
2026-05-06 14:57 53.51579 -1.83022 11169 ft 362 kts 105°
2026-05-06 14:57 53.50881 -1.78947 11429 ft 378 kts 105°
2026-05-06 14:57 53.50162 -1.74784 12073 ft 382 kts 105°
2026-05-06 14:58 53.49463 -1.70777 12653 ft 387 kts 105°
2026-05-06 14:58 53.48706 -1.66468 13310 ft 390 kts 105°
2026-05-06 14:58 53.47960 -1.62247 13903 ft 395 kts 105°
2026-05-06 14:58 53.47178 -1.57846 14547 ft 398 kts 105°
2026-05-06 14:59 53.46395 -1.53464 15170 ft 401 kts 105°
2026-05-06 14:59 53.45589 -1.48960 15787 ft 405 kts 105°
2026-05-06 14:59 53.44773 -1.44419 16391 ft 409 kts 105°
2026-05-06 14:59 53.43955 -1.39875 16978 ft 412 kts 105°
2026-05-06 15:00 53.43131 -1.35316 17535 ft 416 kts 105°
2026-05-06 15:00 53.42318 -1.30827 18088 ft 419 kts 107°
2026-05-06 15:00 53.41486 -1.26235 18601 ft 423 kts 107°
2026-05-06 15:00 53.40643 -1.21585 19143 ft 427 kts 107°
2026-05-06 15:01 53.39779 -1.16839 19674 ft 430 kts 107°
2026-05-06 15:01 53.38897 -1.12010 20175 ft 434 kts 107°
2026-05-06 15:01 53.38026 -1.07252 20713 ft 436 kts 107°
2026-05-06 15:01 53.37140 -1.02427 21173 ft 440 kts 107°
2026-05-06 15:02 53.36236 -0.97516 21717 ft 442 kts 107°
2026-05-06 15:02 53.35332 -0.92617 22158 ft 446 kts 107°
2026-05-06 15:02 53.34419 -0.87679 22614 ft 449 kts 107°
2026-05-06 15:02 53.33490 -0.82672 23049 ft 452 kts 107°
2026-05-06 15:03 53.32558 -0.77663 23521 ft 454 kts 107°
2026-05-06 15:03 53.31615 -0.72609 23910 ft 458 kts 108°
2026-05-06 15:03 53.30658 -0.67496 24318 ft 461 kts 108°
2026-05-06 15:03 53.29711 -0.62445 24743 ft 463 kts 108°
2026-05-06 15:04 53.28746 -0.57312 25135 ft 466 kts 108°
2026-05-06 15:04 53.27770 -0.52134 25514 ft 469 kts 108°
2026-05-06 15:04 53.26779 -0.46890 25901 ft 472 kts 108°
2026-05-06 15:04 53.25797 -0.41714 26259 ft 475 kts 108°
2026-05-06 15:05 53.24800 -0.36469 26637 ft 477 kts 108°
2026-05-06 15:05 53.23802 -0.31232 26994 ft 479 kts 109°
2026-05-06 15:05 53.22778 -0.25876 27351 ft 481 kts 109°
2026-05-06 15:05 53.21762 -0.20579 27671 ft 484 kts 109°
2026-05-06 15:06 53.20738 -0.15250 28003 ft 486 kts 109°
2026-05-06 15:06 53.19713 -0.09935 28323 ft 488 kts 109°
2026-05-06 15:06 53.18663 -0.04505 28642 ft 491 kts 109°
2026-05-06 15:06 53.17619 0.00879 28939 ft 493 kts 109°
2026-05-06 15:07 53.16564 0.06304 29266 ft 494 kts 109°
2026-05-06 15:07 53.15507 0.11728 29547 ft 497 kts 109°
2026-05-06 15:07 53.14441 0.17178 29825 ft 499 kts 109°
2026-05-06 15:07 53.13354 0.22718 30087 ft 502 kts 109°
2026-05-06 15:08 53.12275 0.28206 30409 ft 502 kts 109°
2026-05-06 15:08 53.11197 0.33672 30784 ft 502 kts 109°
2026-05-06 15:08 53.10101 0.39220 31199 ft 501 kts 109°
2026-05-06 15:08 53.09013 0.44703 31541 ft 500 kts 109°
2026-05-06 15:09 53.07939 0.50101 31926 ft 499 kts 109°
2026-05-06 15:09 53.06840 0.55615 32257 ft 498 kts 109°
2026-05-06 15:09 53.05760 0.61014 32596 ft 497 kts 109°
2026-05-06 15:09 53.04720 0.66199 32945 ft 495 kts 110°
2026-05-06 15:10 53.03622 0.71662 33263 ft 494 kts 110°
2026-05-06 15:10 53.02542 0.77014 33540 ft 494 kts 110°
2026-05-06 15:10 53.01456 0.82386 33856 ft 492 kts 110°
2026-05-06 15:10 53.00358 0.87804 34100 ft 492 kts 110°
2026-05-06 15:11 52.99278 0.93119 34353 ft 492 kts 110°
2026-05-06 15:11 52.98189 0.98459 34616 ft 491 kts 110°
2026-05-06 15:11 52.97042 1.03759 34829 ft 490 kts 112°
2026-05-06 15:11 52.95840 1.09059 34978 ft 486 kts 112°
2026-05-06 15:12 52.94668 1.14243 34980 ft 486 kts 112°
2026-05-06 15:12 52.92293 1.24713 34987 ft 488 kts 112°
2026-05-06 15:13 52.89898 1.35226 34986 ft 488 kts 112°
2026-05-06 15:13 52.87511 1.45650 34985 ft 488 kts 111°
2026-05-06 15:14 52.85123 1.56031 34983 ft 488 kts 111°
2026-05-06 15:14 52.82724 1.66410 34984 ft 487 kts 112°
2026-05-06 15:15 52.80312 1.76796 34981 ft 486 kts 112°
2026-05-06 15:15 52.77895 1.87150 34978 ft 486 kts 112°
2026-05-06 15:16 52.75453 1.97558 34978 ft 486 kts 112°
2026-05-06 15:16 52.73018 2.07888 34973 ft 486 kts 112°
2026-05-06 15:17 52.70574 2.18208 34975 ft 486 kts 112°
2026-05-06 15:17 52.68113 2.28549 34973 ft 485 kts 112°
2026-05-06 15:18 52.65653 2.38840 34979 ft 486 kts 112°
2026-05-06 15:18 52.63175 2.49154 34965 ft 485 kts 112°
2026-05-06 15:19 52.60683 2.59476 34966 ft 485 kts 112°
2026-05-06 15:19 52.58258 2.69478 34961 ft 484 kts 113°
2026-05-06 15:20 52.55769 2.79695 34957 ft 484 kts 112°
2026-05-06 15:20 52.53563 2.90095 34957 ft 485 kts 107°
2026-05-06 15:21 52.51670 3.00606 34950 ft 484 kts 107°
2026-05-06 15:21 52.49736 3.11176 34947 ft 483 kts 107°
2026-05-06 15:22 52.47797 3.21680 34946 ft 484 kts 107°
2026-05-06 15:22 52.45849 3.32163 34941 ft 483 kts 107°
2026-05-06 15:23 52.43882 3.42677 34933 ft 483 kts 107°
2026-05-06 15:23 52.41910 3.53165 34933 ft 483 kts 107°
2026-05-06 15:24 52.39940 3.63583 34930 ft 483 kts 107°
2026-05-06 15:24 52.37976 3.73914 34913 ft 481 kts 108°
2026-05-06 15:25 52.35989 3.84303 34915 ft 481 kts 108°
2026-05-06 15:25 52.33987 3.94720 34924 ft 482 kts 108°
2026-05-06 15:26 52.31976 4.05124 34910 ft 481 kts 108°
2026-05-06 15:26 52.29954 4.15525 34904 ft 482 kts 108°
2026-05-06 15:27 52.27919 4.25935 34901 ft 482 kts 108°
2026-05-06 15:27 52.25883 4.36299 34898 ft 482 kts 108°
2026-05-06 15:28 52.23841 4.46637 34904 ft 481 kts 108°
2026-05-06 15:28 52.21784 4.56998 34903 ft 480 kts 108°
2026-05-06 15:29 52.19768 4.67096 34902 ft 480 kts 109°
2026-05-06 15:29 52.17596 4.77156 34905 ft 478 kts 116°
2026-05-06 15:30 52.14119 4.86391 34898 ft 479 kts 125°
2026-05-06 15:30 52.10393 4.95286 34890 ft 478 kts 126°
2026-05-06 15:31 52.06622 5.04124 34882 ft 477 kts 126°
2026-05-06 15:31 52.02830 5.12931 34880 ft 477 kts 126°
2026-05-06 15:32 51.97132 5.26077 34881 ft 476 kts 126°
2026-05-06 15:32 51.93324 5.34819 34882 ft 476 kts 126°
2026-05-06 15:33 51.89526 5.43503 34885 ft 476 kts 126°